Regional Weather Roundup
Issued by NWS

Home | Current Version | Previous Version | Graphics & Text | Print | Product List | Glossary On
Versions: 1 2 3 4 5 6 7 8 9 10 11 12 13 14 15 16 17 18 19 20 21 22 23 24 25 26 27 28 29 30 31 32 33 34 35 36 37 38 39 40 41 42 43 44 45 46 47 48 49 50
190
ASUS43 KLMK 031410
RWRKY
KENTUCKY REGIONAL WEATHER ROUNDUP
NATIONAL WEATHER SERVICE LOUISVILLE KY
1000 AM EDT TUE MAY 03 2016

NOTE "FAIR" INDICATES FEW OR NO CLOUDS BELOW 12,000 FEET
WITH NO SIGNIFICANT WEATHER AND/OR OBSTRUCTIONS TO VISIBILITY.

KYZ001>023-026-027-061>063-070>075-031500-
WESTERN AND SOUTH CENTRAL KENTUCKY

CITY           SKY/WX    TMP DP  RH WIND       PRES   REMARKS
PADUCAH        CLOUDY    59  49  69 N6        30.02R
HENDERSON      MOSUNNY   57  46  67 NW8       29.99R
OWENSBORO      MOSUNNY   59  50  72 NW9       29.99S
HOPKINSVILLE   NOT AVBL
BOWLING GREEN  PTSUNNY   59  51  75 N8        29.98R
GLASGOW        PTSUNNY   57  49  74 N8        29.97R
$$

KYZ024-025-028>034-038-045-046-053-031500-
NORTH CENTRAL KENTUCKY

CITY           SKY/WX    TMP DP  RH WIND       PRES   REMARKS
LOUISVILLE/SDF CLOUDY    56  47  71 NW8       29.95R
LOUISVILLE/LOU CLOUDY    56  47  71 W8        29.95S
FORT KNOX      CLOUDY    54  48  78 NW6       29.94S
$$

KYZ035>037-039>044-047>052-055>060-089>105-031500-
NORTHEAST KENTUCKY

CITY           SKY/WX    TMP DP  RH WIND       PRES   REMARKS
LEXINGTON      CLOUDY    56  50  80 W9        29.93R
COVINGTON      CLOUDY    54  51  90 NW6       29.91S
FRANKFORT      PTSUNNY   59  47  64 NW8       29.92S
$$

KYZ054-064>069-076>088-106>120-031500-
SOUTHEAST KENTUCKY

CITY           SKY/WX    TMP DP  RH WIND       PRES   REMARKS
JACKSON        CLOUDY    56  52  86 VRB3      29.90S
LONDON         CLOUDY    57  53  86 W8        29.92S
SOMERSET       CLOUDY    55  48  76 NW6       29.95S
MIDDLESBORO    CLOUDY    58  56  92 CALM      29.92F
MONTICELLO     PTSUNNY   58  51  78 NW8       29.96S
$$





USA.gov is the U.S. government's official web portal to all federal, state and local government web resources and services.